Tracking 29495 objects as of 7-Sep-2024
HD Live streaming from Space Station
objects crossing your sky now

FENGYUN 1C DEB

Track FENGYUN 1C DEB now!
10-day predictions


NORAD ID: 37423
Int'l Code: 1999-025EGR
Perigee: 846.5 km
Apogee: 917.5 km
Inclination: 98.8 °
Period: 102.5 minutes
Semi major axis: 7253 km
RCS: 0.0095 m2 (small)
Launch date: May 10, 1999
Source: People's Republic of China (PRC)
Launch site: Taiyaun Space Center, China (TSC)

Note: This is SATELLITE DEBRIS
Your satellite tracking list
Your tracking list is empty




NASA's NSSDC Master Catalog

Two Line Element Set (TLE):
1 37423U 99025EGR 24247.95055594  .00005016  00000-0  30801-2 0  9991
2 37423  98.8325 304.3986 0048953  27.7068 332.6692 14.05480475765038
Source of the keplerian elements: AFSPC